Regional Weather Roundup
Issued by NWS State College, PA

Home | Current Version | Previous Version | Graphics & Text | Print | Product List | Glossary On
Versions: 1 2 3 4 5 6 7 8 9 10 11 12 13 14 15 16 17 18 19 20 21 22 23 24 25 26 27 28 29 30 31 32 33 34 35 36 37 38 39 40 41 42 43 44 45 46 47 48 49 50
000
ASUS41 KCTP 221203
RWRCTP

REGIONAL WEATHER ROUNDUP
NATIONAL WEATHER SERVICE STATE COLLEGE PA
800 AM EDT FRI AUG 22 2014

Note: "fair" indicates few or no clouds below 12,000 feet with no
significant weather and/or obstructions to visibility.

* = STATION THAT DOES NOT REPORT PRECIPITATION /E.G. RAIN...SNOW...ETC/
    THUNDER OR FOG.

PAZ002>004-007>009-013>016-020>023-029>032-221300-
WESTERN PENNSYLVANIA

CITY           SKY/WX    TMP DP  RH WIND       PRES   REMARKS
ERIE           CLOUDY    72  67  84 S3        29.99R
MEADVILLE      LGT RAIN  68  66  94 SW3       30.02R FOG
FRANKLIN*      CLOUDY    68  64  88 SW3       30.04R VSB 1/4
NEW CASTLE     NOT AVBL
BEAVER COUNTY  CLOUDY    68  66  94 MISG      30.02S FOG
BUTLER*        CLOUDY    68  64  88 CALM      30.03F
PITTSBURGH INT CLOUDY    69  67  93 CALM      30.01S FOG
PITTSBURGH     CLOUDY    69  66  90 CALM      30.01F FOG
INDIANA*       CLOUDY    70  68  94 CALM      30.07S FOG
LATROBE        CLOUDY    70  70 100 W6        30.03S FOG
WASHINGTON CO* CLOUDY    68  66  94 CALM      30.03R
$$

PAZ004>006-010>012-017>019-024>028-033>037-041-042-045-046-049>053-221300-
CENTRAL PENNSYLVANIA

CITY           SKY/WX    TMP DP  RH WIND       PRES   REMARKS
BRADFORD       CLOUDY    67  65  93 CALM      30.06R FOG
DUBOIS         CLOUDY    67  66  97 CALM      30.04S FOG
CLEARFIELD     CLOUDY    68  68 100 CALM      30.04S FOG
JOHNSTOWN      CLOUDY    67  64  90 CALM      30.06S FOG
ALTOONA        CLOUDY    67  66  97 CALM      30.06R FOG
STATE COLLEGE  CLOUDY    68  66  94 CALM      30.04R FOG
WILLIAMSPORT   CLOUDY    67  64  90 CALM      30.00R FOG
SELINSGROVE    CLOUDY    70  67  90 CALM      30.01R FOG
FT INDIANTOWN  CLOUDY    69  69 100 E3        30.02R
CAPITAL CITY   CLOUDY    69  67  93 CALM      30.01R FOG
HARRISBURG     CLOUDY    70  67  90 CALM      30.00R FOG
YORK           CLOUDY    67  66  97 CALM      30.01R FOG
$$

PAZ038>040-043-044-047-048-054-055-060>062-067>071-221300-
EASTERN PENNSYLVANIA

CITY           SKY/WX    TMP DP  RH WIND       PRES   REMARKS
SCRANTON       PTSUNNY   68  63  84 SE3       30.02R
MOUNT POCONO   FOG       63  61  93 SE8       30.06R VSB<1/4
ALLENTOWN      CLOUDY    68  63  84 E5        30.03R
QUAKERTOWN*    CLOUDY    66  64  94 MISG      30.03S
READING        CLOUDY    68  64  87 CALM      30.01R
LANCASTER      MOSUNNY   68  65  90 E5        30.01R
COATESVILLE    CLOUDY    66  66 100 E8        30.03R
POTTSTOWN      CLOUDY    67  65  93 VRB3      30.04R
BLUE BELL      CLOUDY    68  66  94 E5        30.01S
DOYLESTOWN     CLOUDY    65  65 100 CALM      30.02S
WILLOW GROVE   NOT AVBL
NORTH PHILA    CLOUDY    68  64  87 E5        30.03R
PHILADELPHIA   CLOUDY    69  65  86 E8        30.01R
$$



USA.gov is the U.S. government's official web portal to all federal, state and local government web resources and services.